RH
50 52 54 53 53 58 56 55 56 54 54 51 54 56 56 59 55 67 64 70 61 61 60 56 59 66 45 34 32 32 34 36 40 35 34 39 54 57 52 53 48 49 37
46 54 51 57 55 51 57 55 56 61 55 57 57 60 59 55 56 61 58 49 53 57 55 59 54 44 68 66 46 63 50 56 46 69 54 42 55 54 59 64 46 33 36
42 42 49 51 54 53 54 55 58 60 61 50 55 64 60 55 58 59 58 59 54 55 55 56 55 57 66 53 57 47 41 46 50 49 47 38 38 37 46 56 58 51 32
55 40 48 52 52 51 55 57 55 61 62 60 58 58 59 55 52 52 56 66 63 54 53 55 54 55 63 68 60 68 59 56 52 44 42 41 38 45 40 41 39 32 32
65 61 52 52 54 54 56 59 56 59 60 62 62 59 57 50 43 57 54 56 68 61 55 54 56 57 68 69 49 65 70 58 45 42 41 38 37 38 50 40 41 36 43
83 77 81 75 82 57 61 61 64 62 63 64 64 62 60 42 56 72 66 52 58 63 62 59 58 73 72 82 82 81 80 75 76 53 45 46 68 53 39 39 42 43 47
78 79 82 83 86 83 73 70 67 68 65 69 65 63 65 62 70 76 76 47 52 58 66 66 52 36 67 58 84 84 86 89 90 77 77 70 71 69 71 75 69 63 57
75 77 80 84 82 80 86 82 81 73 77 72 68 69 68 61 77 79 80 58 55 58 58 60 64 61 59 59 59 59 65 66 72 63 71 71 70 70 73 67 75 76 63
62 74 76 76 85 83 81 91 91 86 86 80 75 76 75 70 84 84 82 57 53 61 58 59 60 62 73 79 64 64 64 61 61 80 79 79 80 79 77 55 51 47 43
49 54 61 72 78 81 82 84 90 92 86 86 72 82 77 72 86 89 85 55 58 50 61 66 76 68 77 86 71 67 71 65 59 51 61 76 86 76 91 79 58 55 48
48 50 53 57 64 73 82 86 87 81 83 85 82 84 79 78 76 92 92 67 57 50 46 43 44 77 80 84 92 68 69 66 66 58 51 45 43 46 50 61 68 60 51
52 53 57 58 51 49 70 71 74 82 85 85 91 92 90 86 92 90 93 95 76 61 56 41 44 74 83 83 81 73 83 89 54 50 45 38 34 32 30 34 60 67 55
56 58 56 57 54 54 58 62 50 63 89 92 68 89 94 92 89 91 99 98 98 83 57 59 86 92 90 89 94 89 95 61 57 56 55 50 41 32 42 48 53 72 75
63 59 54 52 52 50 39 38 38 40 44 46 64 84 88 81 91 91 98 98 100 98 97 68 68 78 95 84 72 77 63 57 57 56 54 50 43 38 36 35 36 35 36
58 56 52 43 44 44 46 38 37 47 47 44 45 46 48 54 84 98 98 97 99 99 100 83 65 58 60 58 55 55 56 60 62 59 55 51 46 43 42 40 41 40 42
59 49 46 45 40 37 37 38 53 69 69 76 84 74 47 67 83 93 100 100 100 100 99 98 95 84 57 53 54 54 55 61 54 57 55 53 51 47 45 43 42 44 47
69 63 50 50 43 42 40 39 40 37 78 80 82 84 90 85 92 94 100 100 100 100 100 95 94 89 79 83 59 58 58 55 64 58 59 53 53 49 50 47 45 46 49
60 72 56 48 45 44 43 39 36 37 38 36 58 76 73 82 84 92 100 100 93 98 91 95 94 82 86 84 54 57 65 60 56 54 55 52 53 63 63 52 47 50 48
48 47 52 54 59 60 53 47 41 41 42 38 35 45 50 79 83 93 100 89 82 78 68 86 71 70 73 86 87 76 63 56 57 71 59 62 71 63 62 68 53 67 60
47 59 59 55 59 65 58 54 46 43 41 40 40 37 35 42 40 42 50 65 67 73 68 69 87 88 71 86 89 90 88 78 77 89 82 82 88 88 84 77 78 77 62
48 51 62 57 57 61 66 65 63 57 50 45 43 43 78 52 49 46 43 44 51 69 71 65 68 79 92 83 89 90 85 86 73 70 81 86 86 86 88 78 81 82 82
46 51 56 60 63 75 73 70 70 70 69 63 54 50 72 53 50 49 47 45 45 47 65 90 92 95 90 91 97 95 91 86 84 78 75 82 88 88 88 90 87 80 85
44 52 62 67 76 78 73 72 73 74 74 73 71 62 55 50 47 46 46 47 56 67 73 83 90 94 95 92 96 98 98 97 97 99 98 95 94 95 94 93 91 90 91
58 72 84 85 84 83 80 78 78 82 83 82 80 78 77 71 68 76 81 82 83 85 89 93 90 89 87 90 90 94 96 97 98 98 97 98 99 99 99 99 98 99 99
70 76 87 90 94 96 93 88 85 83 83 86 87 84 84 85 87 88 88 91 94 96 95 95 96 94 92 90 87 85 91 98 96 99 97 98 98 97 98 98 98 98 97
68 75 88 94 94 96 97 96 94 92 90 89 90 92 93 94 93 93 94 95 96 96 95 95 94 92 92 93 93 97 99 99 95 100 95 93 96 97 96 95 94 96 96
Wind_Speed
15 14 13 13 14 12 11 10 10 9 8 6 6 8 7 9 8 7 8 2 8 7 8 6 6 7 9 6 6 6 6 6 8 8 7 7 3 7 7 8 10 11 2
13 12 13 10 11 13 12 12 11 10 10 10 10 8 10 10 9 10 11 9 9 8 9 8 8 8 8 9 8 6 7 7 7 8 8 9 9 6 6 7 8 9 7
12 12 13 12 13 13 13 13 12 11 11 12 11 11 11 11 10 10 10 11 10 10 10 9 9 9 7 8 7 9 9 8 9 9 8 8 8 7 8 8 8 8 9
8 13 11 12 13 14 13 11 13 11 12 12 11 11 13 12 11 12 12 11 12 11 11 10 10 9 8 9 9 8 8 8 8 8 9 9 8 7 6 8 7 7 8
13 13 5 11 11 11 11 12 12 12 12 13 12 12 12 13 12 13 11 13 14 12 11 10 12 11 10 9 9 10 8 8 9 9 9 9 8 6 7 8 9 8 8
13 15 17 8 10 9 10 11 11 13 12 12 13 13 14 13 14 11 11 12 12 12 10 11 11 9 13 10 11 13 10 8 8 9 10 10 7 8 7 8 9 9 10
11 12 14 14 12 9 7 7 10 12 13 12 14 14 14 15 13 12 15 15 13 11 12 12 12 13 15 14 16 16 15 13 13 10 11 11 11 9 8 8 9 9 10
9 10 10 12 12 13 12 7 7 8 9 12 13 14 14 13 13 14 13 14 14 15 14 13 13 13 13 10 14 13 15 15 14 13 14 14 13 11 11 10 10 11 11
9 7 8 10 11 12 12 12 13 8 6 7 9 12 15 15 12 14 12 15 16 17 15 16 16 15 14 14 13 13 13 13 13 20 18 17 18 17 12 10 10 11 10
11 10 8 6 8 9 11 12 11 12 11 9 12 11 15 16 13 13 12 12 15 14 15 17 16 18 14 14 15 15 16 16 12 14 10 14 13 14 14 11 12 12 12
12 10 10 9 9 5 7 8 8 11 13 11 11 11 14 14 15 14 16 13 14 14 14 13 14 22 22 20 16 16 18 13 13 12 13 12 12 12 12 13 14 13 12
11 12 10 10 9 9 8 8 10 9 10 11 9 7 9 13 15 12 17 20 15 15 15 13 13 14 21 23 19 22 17 12 13 13 13 13 11 11 11 12 13 15 13
12 12 12 11 10 10 10 10 10 8 6 5 8 7 8 9 10 16 12 14 18 15 14 15 11 4 6 9 14 8 12 13 13 13 13 14 12 12 12 10 10 11 14
15 13 13 12 10 11 9 9 10 9 9 10 6 5 5 10 8 4 7 6 7 8 13 16 17 15 13 12 6 10 11 12 12 13 12 12 12 12 11 11 11 11 11
14 15 13 12 12 10 8 10 9 10 7 9 9 11 11 12 8 11 9 9 6 5 11 13 15 13 13 13 12 13 11 11 12 12 12 12 12 11 11 10 10 10 11
14 11 13 13 12 12 11 11 11 14 13 12 12 11 11 13 15 16 15 14 14 14 5 9 11 11 13 13 12 13 13 14 12 11 12 12 12 11 11 10 11 11 11
12 13 12 12 13 13 13 12 13 12 15 16 16 15 14 14 15 15 14 11 11 8 7 7 12 13 13 10 11 10 11 10 11 11 11 11 11 11 12 11 10 10 11
12 11 12 13 12 13 14 14 13 13 13 13 10 14 11 12 15 16 14 5 8 4 8 9 11 12 12 14 12 9 7 8 9 10 10 11 11 10 10 11 10 11 12
13 10 10 12 12 15 16 17 15 15 15 15 13 12 14 16 14 15 6 7 10 11 10 8 11 12 12 11 12 9 10 12 11 11 12 11 11 12 12 10 12 11 10
13 16 11 12 12 12 14 16 16 16 15 14 14 14 12 12 12 12 8 8 10 10 11 11 11 11 13 9 11 10 11 12 11 10 10 9 9 9 11 11 10 10 11
11 12 17 13 13 11 11 13 14 15 17 14 15 15 9 10 14 13 13 12 12 10 11 13 11 11 9 11 11 10 13 12 12 10 10 10 9 9 9 9 10 10 10
11 11 11 12 11 11 12 11 12 14 14 14 16 17 16 14 14 14 14 14 13 12 5 6 7 9 8 6 5 5 10 13 13 12 11 10 8 9 9 9 10 11 11
11 13 13 12 12 17 13 12 12 13 13 13 14 14 16 16 14 14 14 11 10 10 10 9 9 8 6 7 6 3 4 6 6 5 4 5 7 8 9 10 11 11 11
10 11 11 11 11 12 13 12 12 14 14 13 13 12 12 12 13 12 10 9 11 11 9 8 8 10 9 8 7 6 6 5 4 6 7 4 4 3 3 4 6 5 4
9 10 9 10 10 11 12 11 11 12 12 11 12 12 11 12 11 10 10 8 8 8 7 6 4 6 7 8 9 10 8 10 9 10 7 7 5 4 3 2 2 2 1
8 10 8 8 9 10 10 11 11 10 10 10 10 10 10 9 10 9 8 8 7 6 5 2 2 4 5 5 6 8 6 6 6 8 8 4 4 3 2 2 3 2 4
Wind_Direction
204 208 213 208 208 210 213 217 223 236 256 228 245 225 203 221 212 208 256 266 199 219 268 277 205 265 281 266 225 238 264 262 263 270 335 313 310 276 299 306 300 294 327
204 200 213 220 213 204 213 214 214 223 227 235 225 211 226 234 230 203 228 241 220 217 229 245 236 230 226 268 281 306 296 328 305 303 292 286 270 272 254 278 286 304 315
198 204 201 214 213 224 208 213 207 213 223 228 223 205 226 227 225 227 231 235 246 217 232 231 233 238 240 258 253 256 237 223 229 242 273 290 286 293 281 265 262 275 272
315 195 213 205 221 220 222 215 212 210 217 225 231 225 213 231 236 234 226 220 259 239 234 234 243 233 236 230 239 260 258 274 279 272 265 265 262 274 266 268 309 313 307
355 344 192 199 215 239 228 235 226 216 215 221 224 229 229 223 221 220 233 242 214 236 252 235 227 237 233 235 246 228 253 242 251 256 261 266 270 308 330 325 298 298 320
15 6 356 334 351 225 220 232 236 246 231 223 225 225 224 232 226 212 223 231 228 226 231 247 256 223 222 221 232 258 266 275 263 275 284 287 304 297 286 294 316 311 306
22 20 4 4 355 334 310 257 233 235 251 234 235 234 231 228 237 216 207 229 244 243 231 233 239 243 208 221 218 230 247 246 236 260 267 271 286 286 284 283 284 295 292
37 24 12 4 356 349 340 285 262 262 244 240 243 240 244 240 224 223 215 229 235 239 245 244 230 246 263 239 228 231 226 233 235 236 238 253 261 271 270 272 266 264 267
42 37 24 11 351 343 337 342 322 264 258 263 261 250 246 245 236 222 213 239 239 242 242 238 245 248 232 229 253 259 242 242 228 215 222 227 227 241 254 277 279 281 280
6 3 4 13 347 337 335 329 320 315 277 258 253 250 254 249 230 212 207 244 244 241 235 235 235 243 244 222 227 244 250 250 254 266 232 247 249 247 232 238 257 260 268
342 340 344 342 336 305 310 312 315 311 307 291 261 259 262 257 247 204 201 232 246 245 242 243 231 211 222 228 216 240 245 254 252 247 253 254 251 242 229 217 219 229 246
326 322 325 325 325 325 319 309 298 289 295 306 292 279 264 260 259 234 207 217 236 253 262 261 248 217 208 216 216 233 234 239 253 257 260 259 254 248 245 247 213 214 224
316 311 310 311 309 307 310 297 295 265 229 281 297 312 289 268 260 251 244 236 236 235 244 261 305 351 246 232 242 252 220 236 247 251 249 252 253 255 261 261 260 210 221
312 300 298 294 299 295 291 304 300 302 315 322 315 296 335 316 299 6 1 341 287 270 277 272 260 271 292 277 269 208 223 231 238 244 245 248 252 250 250 240 245 252 253
315 313 297 287 286 288 289 287 301 302 303 309 303 305 304 297 297 325 307 303 305 285 304 283 255 242 239 240 242 239 233 216 225 241 250 249 248 243 243 244 249 256 251
314 306 311 316 303 301 295 291 261 241 253 236 237 249 283 281 290 287 288 283 262 272 254 273 268 265 250 241 232 228 227 224 233 221 223 233 249 256 255 246 243 244 248
319 311 307 300 295 297 294 293 290 279 227 229 229 233 233 260 280 274 273 284 280 271 266 273 263 266 269 257 249 236 234 236 226 221 235 239 230 233 236 245 258 253 241
313 296 295 295 294 290 283 278 278 283 284 284 246 226 245 254 264 271 279 311 298 215 253 254 259 261 258 264 256 226 230 251 259 260 257 252 262 264 265 254 240 241 243
315 310 305 299 297 299 299 294 286 280 277 278 277 275 266 237 251 253 221 261 271 268 266 244 249 266 255 262 277 268 248 252 246 234 238 237 232 239 251 263 270 250 264
317 308 298 299 296 289 289 287 284 277 273 274 279 278 282 291 278 279 266 269 268 261 270 266 261 249 254 249 262 260 250 243 245 250 249 245 244 242 256 260 258 271 278
316 312 312 301 293 284 287 289 291 292 292 284 283 285 308 294 280 279 278 275 268 264 266 270 266 274 267 260 252 254 252 252 253 242 226 233 242 242 240 247 255 255 259
315 315 317 309 298 292 289 282 277 281 286 285 281 282 278 269 265 267 268 265 265 267 322 333 315 326 317 301 309 301 279 262 254 244 239 237 235 240 246 250 251 253 257
341 335 326 314 304 299 293 284 277 276 275 273 276 280 281 285 281 275 278 292 300 295 300 302 300 297 304 314 312 302 269 285 322 326 323 288 248 233 231 239 246 249 242
348 334 321 312 303 296 291 288 282 277 275 276 273 274 278 277 276 280 283 285 284 284 288 288 288 293 301 303 297 289 285 279 282 280 281 264 265 297 296 271 249 235 245
347 333 320 316 310 300 300 295 289 282 277 276 275 272 278 280 279 276 276 274 270 270 270 282 289 296 301 309 300 294 295 288 267 266 250 240 246 228 232 258 236 257 306
352 345 325 316 314 308 304 302 300 292 284 281 278 274 272 270 270 268 265 259 257 257 252 265 14 27 11 347 339 313 295 295 295 262 261 218 198 168 154 151 118 100 95